Total_Precipitation_Accumulation
0.79 0.82 0.91 1.00 1.02 1.13 1.21 1.20 1.17 1.24 1.30 1.29 1.27 1.26 1.24 1.28 1.40 1.52 1.57 1.59 1.62 1.58 1.58 1.58 1.55 1.51 1.54 1.51 1.49 1.47 1.50 1.72 1.70 0.92 0.66 0.71 0.83 0.89 0.91 0.88 0.88 0.95 0.99
0.83 0.84 0.87 0.98 1.03 1.09 1.16 1.24 1.23 1.24 1.29 1.29 1.29 1.26 1.16 1.14 1.22 1.33 1.40 1.46 1.52 1.50 1.49 1.53 1.51 1.51 1.55 1.57 1.62 1.59 1.54 1.58 1.71 1.34 0.88 0.82 0.88 0.92 0.95 0.97 0.92 0.91 0.93
0.77 0.86 0.88 0.91 1.00 1.11 1.19 1.23 1.24 1.21 1.26 1.29 1.30 1.30 1.24 1.20 1.23 1.25 1.28 1.33 1.36 1.37 1.36 1.41 1.45 1.51 1.55 1.52 1.54 1.56 1.52 1.47 1.52 1.53 1.14 0.93 0.96 1.00 1.07 1.09 1.08 1.07 1.02
0.79 0.81 0.91 0.98 0.98 1.05 1.15 1.21 1.28 1.28 1.28 1.31 1.31 1.32 1.33 1.34 1.45 1.45 1.35 1.33 1.27 1.24 1.25 1.31 1.37 1.49 1.57 1.64 1.73 1.65 1.59 1.66 1.67 1.68 1.43 1.14 1.05 1.04 1.21 1.29 1.27 1.20 1.14
0.98 0.96 0.93 0.99 1.00 0.99 1.05 1.10 1.17 1.25 1.27 1.24 1.22 1.23 1.27 1.39 1.70 1.75 1.56 1.43 1.33 1.26 1.21 1.21 1.25 1.46 1.71 1.95 2.09 2.01 1.98 2.07 2.02 2.00 1.78 1.46 1.27 1.26 1.33 1.31 1.38 1.28 1.24
1.10 1.11 1.00 0.96 0.97 0.99 1.02 1.05 1.08 1.13 1.16 1.15 1.13 1.13 1.21 1.37 1.84 1.93 1.73 1.46 1.39 1.35 1.30 1.23 1.23 1.35 1.47 1.68 1.92 2.00 2.09 2.22 2.30 2.26 2.09 1.80 1.41 1.28 1.33 1.51 1.67 1.71 1.56
1.12 1.18 1.14 1.02 0.96 0.97 0.96 0.97 0.98 1.00 1.04 1.04 1.04 1.07 1.08 1.27 1.77 1.81 1.65 1.35 1.26 1.27 1.23 1.16 1.17 1.18 1.28 1.19 1.34 1.48 1.55 1.76 2.03 2.21 2.26 1.83 1.51 1.39 1.63 1.90 1.92 1.91 1.65
1.17 1.14 1.11 1.02 0.92 0.94 0.97 0.94 0.87 0.89 0.94 0.97 0.98 1.01 0.99 1.06 1.51 1.76 1.61 1.20 1.13 1.19 1.19 1.17 1.16 1.13 1.15 1.28 1.34 1.35 1.24 1.25 1.50 1.75 1.90 1.73 1.63 1.65 1.92 2.26 2.42 2.48 2.08
1.07 1.06 1.04 1.00 0.94 0.97 1.02 0.96 0.88 0.87 0.89 0.89 0.90 0.94 0.95 0.99 1.30 1.72 1.77 1.30 1.24 1.20 1.20 1.32 1.37 1.26 1.35 1.59 1.67 1.61 1.36 1.18 1.26 1.61 1.90 1.95 2.02 2.24 2.48 2.88 3.20 3.32 2.96
0.90 0.95 1.00 0.96 0.95 0.98 1.04 1.00 0.95 0.92 0.95 0.97 0.95 0.97 0.97 0.94 1.18 1.62 1.93 1.50 1.41 1.28 1.25 1.38 1.71 1.66 1.68 1.76 1.75 1.78 1.72 1.37 1.24 1.29 1.40 1.51 1.54 1.64 2.07 2.39 2.72 3.11 3.06
0.78 0.82 0.92 0.95 0.94 0.96 1.00 1.03 1.02 1.02 1.04 1.06 1.03 1.01 1.00 0.97 1.05 1.35 1.85 1.74 1.55 1.46 1.43 1.45 1.57 1.74 1.73 1.78 1.84 1.79 1.85 1.76 1.67 1.63 1.54 1.44 1.45 1.57 1.73 1.97 2.25 2.65 2.97
0.76 0.78 0.83 0.92 0.92 0.94 0.97 0.97 0.96 1.03 1.11 1.13 1.11 1.08 1.04 1.02 1.04 1.21 1.57 1.82 1.76 1.54 1.47 1.34 1.43 1.67 1.73 1.78 1.74 1.77 1.90 1.93 1.79 1.74 1.66 1.54 1.47 1.49 1.53 1.67 1.94 2.14 2.34
0.75 0.79 0.83 0.90 0.90 0.89 0.90 0.91 0.90 0.92 1.03 1.11 1.11 1.13 1.09 1.05 1.10 1.26 1.34 1.47 1.60 1.49 1.45 1.65 1.65 1.66 1.61 1.54 1.58 1.67 1.64 1.58 1.65 1.65 1.50 1.34 1.24 1.25 1.36 1.54 1.74 1.93 2.10
0.79 0.83 0.87 0.92 0.95 0.90 0.85 0.86 0.88 0.94 1.11 1.21 1.18 1.15 1.09 1.06 1.13 1.33 1.39 1.35 1.43 1.46 1.46 1.58 1.59 1.46 1.36 1.36 1.43 1.45 1.41 1.47 1.61 1.62 1.47 1.32 1.25 1.30 1.40 1.50 1.69 1.85 2.13
0.78 0.84 0.90 0.94 0.95 0.93 0.87 0.88 0.93 0.97 1.22 1.49 1.44 1.39 1.40 1.39 1.47 1.79 1.79 1.66 1.67 1.69 1.71 1.68 1.54 1.39 1.32 1.25 1.22 1.20 1.23 1.37 1.52 1.48 1.50 1.49 1.45 1.45 1.47 1.48 1.65 1.82 2.02
0.78 0.81 0.88 0.96 0.98 0.93 0.88 0.90 0.95 0.98 1.09 1.13 1.17 1.30 1.32 1.49 1.66 1.67 1.61 1.59 1.65 1.70 1.73 1.63 1.41 1.28 1.23 1.18 1.18 1.20 1.18 1.22 1.28 1.36 1.46 1.50 1.52 1.54 1.54 1.54 1.68 1.85 1.91
0.81 0.83 0.86 0.89 0.93 0.92 0.89 0.86 0.90 0.91 0.94 0.97 1.00 1.07 1.21 1.40 1.44 1.43 1.49 1.44 1.45 1.46 1.44 1.31 1.22 1.19 1.18 1.16 1.17 1.19 1.18 1.13 1.19 1.34 1.45 1.51 1.55 1.59 1.60 1.60 1.65 1.74 1.78
0.79 0.85 0.87 0.89 0.92 0.91 0.90 0.88 0.86 0.87 0.90 0.93 0.93 0.96 1.06 1.19 1.27 1.32 1.38 1.35 1.33 1.24 1.20 1.22 1.20 1.17 1.16 1.18 1.19 1.21 1.18 1.16 1.22 1.30 1.36 1.40 1.47 1.58 1.60 1.52 1.52 1.64 1.73
0.70 0.78 0.83 0.87 0.89 0.89 0.89 0.88 0.86 0.85 0.85 0.88 0.90 0.95 1.01 1.06 1.14 1.22 1.23 1.18 1.20 1.16 1.13 1.16 1.16 1.20 1.21 1.18 1.17 1.17 1.21 1.23 1.21 1.24 1.26 1.27 1.32 1.47 1.51 1.40 1.42 1.55 1.76
0.65 0.76 0.83 0.84 0.85 0.87 0.89 0.90 0.90 0.91 0.90 0.89 0.92 1.00 1.08 1.14 1.16 1.17 1.14 1.13 1.15 1.12 1.09 1.14 1.12 1.15 1.21 1.23 1.22 1.21 1.24 1.22 1.20 1.21 1.21 1.21 1.25 1.40 1.46 1.39 1.44 1.56 1.63
0.63 0.69 0.77 0.79 0.81 0.85 0.90 0.95 0.96 0.98 0.99 0.95 0.93 0.98 1.30 1.44 1.28 1.12 1.11 1.14 1.21 1.23 1.20 1.18 1.11 1.07 1.10 1.16 1.22 1.23 1.24 1.19 1.15 1.21 1.24 1.24 1.28 1.37 1.36 1.42 1.46 1.51 1.59
0.67 0.71 0.74 0.78 0.81 0.86 0.94 0.95 0.96 0.98 0.97 0.94 0.92 0.94 1.05 1.05 1.04 1.03 1.04 1.10 1.18 1.24 1.27 1.30 1.20 1.07 1.08 1.20 1.28 1.32 1.25 1.15 1.11 1.21 1.30 1.28 1.30 1.35 1.39 1.43 1.44 1.50 1.57
0.72 0.76 0.75 0.75 0.78 0.88 0.91 0.88 0.91 0.95 0.96 0.92 0.90 0.92 0.94 0.96 0.99 1.04 1.08 1.11 1.17 1.21 1.20 1.22 1.21 1.08 1.00 1.08 1.19 1.34 1.39 1.26 1.21 1.37 1.53 1.48 1.39 1.37 1.41 1.44 1.41 1.48 1.51
0.77 0.79 0.81 0.80 0.81 0.83 0.85 0.86 0.89 0.91 0.93 0.94 0.93 0.93 0.95 0.96 0.98 1.02 1.07 1.11 1.16 1.18 1.16 1.16 1.14 1.06 1.01 1.05 1.09 1.13 1.20 1.32 1.57 1.74 1.71 1.71 1.56 1.40 1.40 1.44 1.39 1.38 1.45
0.78 0.80 0.82 0.84 0.86 0.88 0.89 0.86 0.87 0.91 0.93 0.95 0.95 0.94 0.93 0.94 0.96 1.00 1.04 1.09 1.14 1.16 1.11 1.09 1.10 1.06 1.00 0.98 0.99 1.04 1.18 1.40 1.67 2.04 2.27 2.17 1.83 1.53 1.47 1.47 1.41 1.39 1.43
0.78 0.77 0.79 0.83 0.88 0.92 0.97 0.97 0.94 0.95 1.00 0.98 0.96 0.97 0.98 1.00 1.00 1.03 1.06 1.13 1.21 1.19 1.12 1.08 1.03 1.00 0.98 0.97 0.97 1.05 1.23 1.47 1.71 2.01 2.50 2.68 2.22 1.73 1.57 1.58 1.47 1.45 1.49